Tracking 23762 objects as of 19-Oct-2021
HD Live streaming from Space Station
objects crossing your sky now

MINOTAUR 4 R/B

Track MINOTAUR 4 R/B now!
10-day predictions


NORAD ID: 37228
Int'l Code: 2010-062G
Perigee: 630.6 km
Apogee: 647.2 km
Inclination: 72.0 °
Period: 97.3 minutes
Semi major axis: 7009 km
RCS: Unknown
Launch date: November 20, 2010
Source: United States (US)
Launch site: Kodiak Island, Alaska (KODAK)

Note: This is a ROCKET BODY
aabbcc
Your satellite tracking list
Your tracking list is empty




NASA's NSSDC Master Catalog

Two Line Element Set (TLE):
1 37228U 10062G   21199.01619695 0.00000100  00000-0  13431-4 0    00
2 37228  71.9680 175.7527 0011867 245.1945 114.8054 14.79220488    00
Source of the keplerian elements: McCants